Regional Weather Roundup
Issued by NWS Albany, NY

Home | Current Version | Previous Version | Text Only | Print | Product List | Glossary On
Versions: 1 2 3 4 5 6 7 8 9 10 11 12 13 14 15 16 17 18 19 20 21 22 23 24 25 26 27 28 29 30 31 32 33 34 35 36 37 38 39 40 41 42 43 44 45 46 47 48 49 50
000
ASUS41 KALY 291210
RWRALY

NEW YORK STATE HOURLY WEATHER ROUNDUP
NATIONAL WEATHER SERVICE ALBANY NY
800 AM EDT FRI MAY 29 2020

NOTE: "FAIR" INDICATES FEW OR NO CLOUDS BELOW 12,000 FEET WITH NO
SIGNIFICANT WEATHER AND/OR NO OBSTRUCTIONS TO VISIBILITY.

NYZ032-033-038>043-046>054-057>066-NYZ062>081-082-084-291300-
EAST


CITY           SKY/WX    TMP DP  RH WIND       PRES   REMARKS
ALBANY         CLOUDY    74  67  78 SE12      29.99R
GLENS FALLS    CLOUDY    72  67  84 S9        29.97S
POUGHKEEPSIE   PTSUNNY   72  67  84 S7        30.01S
NEWBURGH       CLOUDY    72  70  94 S8        30.03S
MONTGOMERY     CLOUDY    71  69  93 S7        30.02R
WHITE PLAINS     N/A     66  65  96 S7        30.05S FOG
ISLIP          FOG       63  63 100 SW10      30.07F VSB 1/2
NEW YORK CITY  CLOUDY    70  65  84 S9        30.04F
CENTRAL PARK   CLOUDY    71  67  87 MISG      30.07F
$$

NYZ005>009-017-018-044>046-055-056-291300-
CENTRAL


CITY           SKY/WX    TMP DP  RH WIND       PRES   REMARKS
FULTON         MOSUNNY   76  69  79 S12       29.90S
SYRACUSE       PTSUNNY   77  68  73 S12       29.91S
ROME           MOSUNNY   75  67  76 S6        29.94S
ELMIRA         CLOUDY    71  68  90 SW5       29.95S
BINGHAMTON     CLOUDY    69  66  90 S6        30.00R
MONTICELLO     CLOUDY    70  68  93 S6        30.06S
$$

NYZ026>034-041>043-087-291300-
NORTH


CITY           SKY/WX    TMP DP  RH WIND       PRES   REMARKS
WATERTOWN      MOSUNNY   76  67  73 S12       29.88R
FORT DRUM      NOT AVBL
OGDENSBURG     FAIR      73  66  78 SW13      29.84R
MASSENA        MOSUNNY   76  66  71 SW15      29.85S
SARANAC LAKE   MOSUNNY   73  63  70 SW16G24   29.93S
PLATTSBURGH    MOSUNNY   72  66  81 SE9       29.88R
$$

NYZ001>004-010>016-019>021-085-291300-
WEST


CITY           SKY/WX    TMP DP  RH WIND       PRES   REMARKS
NIAGARA FALLS  PTSUNNY   70  64  81 S8        29.86F
BUFFALO        PTSUNNY   71  64  78 S10       29.88S
DUNKIRK        CLOUDY    73  63  70 S13       29.88S
JAMESTOWN      CLOUDY    67  64  90 S7        29.96R
WELLSVILLE     PTSUNNY   68  65  90 S6        30.00R
ROCHESTER      CLOUDY    72  63  73 SW8       29.90S
PENN YAN       CLOUDY    72  67  84 SW8       29.94S
$$

             KEY
       WCI = WIND CHILL INDEX
       VSB = VISIBILITY
       HX  = HEAT INDEX
$$



USA.gov is the U.S. government's official web portal to all federal, state and local government web resources and services.